Home > Weather > Cuxhaven > Past weeks

Flag for Germany Past Weather in Cuxhaven, Lower Saxony, Germany — Yesterday and Last 2 Weeks

Now
73 °F

Scattered clouds.


Feels Like: 75 °F
Forecast: 60 / 69 °F
Wind: 9 mph from West

Location: Nordholz

Current Time: Jul 25, 2016 at 2:02:04 PM

Latest Report: Jul 25, 2016 at 12:20 PM


Visibility: 4 mi

Pressure: 30.04 "Hg

Humidity: 74%

Dew Point: 64 °F

Location of CuxhavenLocation

Past Weather in Cuxhaven — Graph

°F

Cuxhaven Temperature Yesterday

Maximum temperature yesterday: 75 °F (at 12:20 PM)
Minimum temperature yesterday: 61 °F (at 3:20 AM)
Average temperature yesterday: 68 °F

High & Low Weather Summary for the Past Weeks

 TemperatureHumidityPressure
High84 °F (Jul 20, 4:20 PM)100% (Jul 13, 2:20 AM)30.21 "Hg (Jul 13, 2:20 AM)
Low52 °F (Jul 14, 3:20 AM)45% (Jul 20, 4:20 PM)29.68 "Hg (Jul 11, 3:20 AM)
Average65 °F80%30.01 "Hg
* Reported Jul 10 12:20 PM — Jul 25 12:20 PM, Cuxhaven, Weather by CustomWeather, © 2016

Note: Actual official high and low records may vary slightly from our data, if they occured in-between our weather recording intervals... More about our weather records

Advertising

Cuxhaven Weather History for the Previous 24 Hours

Scroll right to see more
 ConditionsComfort  
Time TempWeatherWind HumidityBarometerVisibility
12:20 PM
Mon, Jul 25
73 °FScattered clouds.9 mph74%30.04 "Hg4 mi
11:20 AM73 °FPartly sunny.10 mph78%30.04 "Hg4 mi
10:20 AM73 °FPartly sunny.7 mph74%30.04 "HgN/A
9:20 AM72 °FPartly sunny.5 mph73%30.04 "HgN/A
9:03 AM72 °FPartly sunny.6 mph78%30.04 "Hg5 mi
8:20 AM70 °FFog.5 mph83%30.04 "Hg3 mi
7:20 AM64 °FFog.2 mph94%30.04 "Hg3 mi
7:01 AM63 °FFog.2 mph94%30.04 "Hg2 mi
6:20 AM63 °FFog.2 mph94%30.04 "Hg2 mi
5:20 AM64 °FFog.No wind88%30.04 "Hg2 mi
4:54 AM64 °FFog.2 mph88%30.04 "Hg3 mi
4:20 AM64 °FPassing clouds.2 mph94%30.04 "Hg4 mi
3:20 AM66 °FPassing clouds.5 mph88%30.07 "Hg4 mi
2:20 AM66 °FFog.5 mph88%30.07 "Hg4 mi
1:20 AM64 °FFog.3 mph94%30.07 "Hg3 mi
12:20 AM64 °FFog.2 mph88%30.07 "Hg4 mi
11:20 PM
Sun, Jul 24
64 °FFog.1 mph94%30.07 "Hg4 mi
10:20 PM66 °FFog.2 mph88%30.09 "Hg4 mi
9:20 PM68 °FPassing clouds.5 mph83%30.07 "Hg4 mi
8:20 PM70 °FScattered clouds.5 mph83%30.07 "Hg4 mi
7:20 PM70 °FScattered clouds.7 mph83%30.07 "Hg5 mi
6:20 PM73 °FScattered clouds.9 mph69%30.07 "HgN/A
5:20 PM75 °FScattered clouds.8 mph65%30.07 "HgN/A
4:20 PM73 °FScattered clouds.9 mph69%30.09 "HgN/A
3:20 PM73 °FScattered clouds.8 mph69%30.09 "HgN/A
2:20 PM73 °FPassing clouds.10 mph78%30.09 "HgN/A
Weather by CustomWeather, © 2016

See weather overviewHow to use our weather pages